Flag for Grenada Weather past 2 weeks in Saint George's, Grenada

Now
86 °F

Scattered clouds.


Feels Like: 97 °F
Forecast: 77 / 82 °F
Wind: 15 mph from East

Location: Point Salines Airport

Current Time: Sep 16, 2014 at 10:14:31 AM

Latest Report: Sep 16, 2014 at 9:00 AM


Visibility: N/A

Pressure: 29.98 "Hg

Humidity: 75%

Dew point: 77 °F

Location of Saint George'sLocation

Historic Weather in Saint George's — Graph

°F

Saint George's temperature yesterday

Maximum temperature yesterday: 88 °F (at 11:00 AM)
Minimum temperature yesterday: 68 °F (at 10:00 AM)
Average temperature yesterday: 82 °F

Past Weeks' High & Low Weather Summary

 TemperatureHumidityPressure
High90 °F (Sep 5, 11:00 AM)100% (Sep 11, 7:00 AM)30.01 "Hg (Sep 11, 7:00 AM)
Low68 °F (Sep 15, 10:00 AM)62% (Sep 9, 10:00 AM)29.83 "Hg (Sep 2, 4:00 PM)
Average83 °F82%29.91 "Hg
* Reported Sep 1 9:00 AM — Sep 16 9:00 AM, Saint George's, Weather by CustomWeather, © 2014

Note: Actual official high and low records may vary slightly from our data, if they occured in-between our weather recording intervals... More about our weather records

Advertising

Saint George's weather history for previous 24 hours

 ConditionsComfort  
Time TempWeatherWind HumidityBarometerVisibility
9:00 AM
Sep 16
86 °FScattered clouds.15 mph75%29.98 "HgN/A
8:00 AM82 °FScattered clouds.12 mph89%29.95 "HgN/A
7:00 AM81 °FScattered clouds.8 mph89%29.95 "HgN/A
6:00 AM79 °FScattered clouds.7 mph94%29.92 "HgN/A
5:00 AM79 °FPassing clouds.7 mph94%29.92 "HgN/A
4:00 AM79 °FPassing clouds.6 mph89%29.89 "HgN/A
3:00 AM79 °FPassing clouds.7 mph94%29.89 "HgN/A
2:00 AM81 °FPassing clouds.7 mph89%29.92 "HgN/A
1:00 AM81 °FPassing clouds.6 mph89%29.95 "HgN/A
12:00 AM81 °FPassing clouds.6 mph89%29.95 "HgN/A
11:00 PM
Sep 15
81 °FPassing clouds.6 mph89%29.98 "HgN/A
10:00 PM81 °FPassing clouds.6 mph89%29.98 "HgN/A
9:00 PM81 °FPassing clouds.6 mph89%29.95 "HgN/A
8:00 PM81 °FPassing clouds.9 mph89%29.95 "HgN/A
7:00 PM82 °FPassing clouds.9 mph89%29.92 "HgN/A
6:00 PM82 °FPassing clouds.7 mph84%29.92 "HgN/A
5:00 PM84 °FScattered clouds.12 mph84%29.89 "HgN/A
4:00 PM84 °FPartly sunny.12 mph84%29.89 "HgN/A
3:00 PM86 °FWarm.N/A75%29.92 "HgN/A
2:00 PM86 °FWarm.16 mph75%29.92 "HgN/A
1:00 PM88 °FPassing clouds.15 mph70%29.92 "HgN/A
12:00 PM88 °FPassing clouds.16 mph70%29.95 "HgN/A
11:00 AM88 °FPassing clouds.16 mph70%29.98 "HgN/A
10:00 AM68 °FPassing clouds.14 mph100%29.95 "HgN/A
Weather by CustomWeather, © 2014

See weather overviewHow to use our weather pages